Volver al catálogo

ONDOSAT-OWL-8

ActivoRadioaficionadoVLEO
NORAD 62399·PAYLOAD·🇲🇳 Mongolia
Este nombre de satélite aún no ha sido confirmado por fuentes oficiales.

Lanzado Dec 21, 2024 desde Vandenberg Space Force Base

Loading…

Próximos Pases (próximas 24 horas)

TLE

ActualizadoSource: Space-Track

Época: Sep 14, 2026, 15:26 UTC

1 62399U 24247Y   26257.64366468  .00039092  00000-0  57063-3 0  9990
2 62399  44.9915 108.9667 0004866 202.3320 157.7362 15.55048389 97304

Sigue ONDOSAT-OWL-8 en tiempo real con AllMySat

Download on the App Store